Time,TemperatureF,DewpointF,PressureIn,WindDirection,WindDirectionDegrees,WindSpeedMPH,WindSpeedGustMPH,Humidity,HourlyPrecipIn,Conditions,Clouds,dailyrainin,SoftwareType,DateUTC
2013-09-06 00:03:00,72.0,54.0,30.28,ESE,105,1.0,5.0,53,0.00,,,0.00,,2013-09-06 05:03:00,
2013-09-06 00:12:00,72.0,54.0,30.28,ESE,105,1.0,5.0,53,0.00,,,0.00,,2013-09-06 05:12:00,
2013-09-06 00:23:00,72.0,54.0,30.28,ESE,105,1.0,5.0,53,0.00,,,0.00,,2013-09-06 05:23:00,
2013-09-06 00:52:00,71.0,55.0,30.28,NE,36,0.0,3.0,57,0.00,,,0.00,,2013-09-06 05:52:00,
2013-09-06 01:02:00,71.0,55.0,30.28,NE,36,0.0,3.0,57,0.00,,,0.00,,2013-09-06 06:02:00,
2013-09-06 01:12:00,71.0,55.0,30.28,NE,36,0.0,3.0,57,0.00,,,0.00,,2013-09-06 06:12:00,
2013-09-06 01:22:00,70.0,55.0,30.28,NE,36,0.0,1.0,58,0.00,,,0.00,,2013-09-06 06:22:00,
2013-09-06 01:32:00,70.0,55.0,30.28,NE,36,0.0,1.0,58,0.00,,,0.00,,2013-09-06 06:32:00,
2013-09-06 01:53:00,69.0,55.0,30.27,ENE,57,0.0,0.0,61,0.00,,,0.00,,2013-09-06 06:53:00,
2013-09-06 02:01:00,69.0,55.0,30.27,ENE,57,0.0,0.0,61,0.00,,,0.00,,2013-09-06 07:01:00,
2013-09-06 02:12:00,69.0,55.0,30.27,ENE,57,0.0,0.0,61,0.00,,,0.00,,2013-09-06 07:12:00,
2013-09-06 02:23:00,68.0,54.0,30.27,NW,326,1.0,3.0,61,0.00,,,0.00,,2013-09-06 07:23:00,
2013-09-06 02:32:00,68.0,54.0,30.27,NW,326,1.0,3.0,61,0.00,,,0.00,,2013-09-06 07:32:00,
2013-09-06 02:52:00,68.0,55.0,30.27,SE,144,3.0,10.0,64,0.00,,,0.00,,2013-09-06 07:52:00,
2013-09-06 03:03:00,68.0,55.0,30.27,SE,144,3.0,10.0,64,0.00,,,0.00,,2013-09-06 08:03:00,
2013-09-06 03:22:00,69.0,56.0,30.27,SE,134,1.0,5.0,64,0.00,,,0.00,,2013-09-06 08:22:00,
2013-09-06 03:32:00,69.0,56.0,30.27,SE,134,1.0,5.0,64,0.00,,,0.00,,2013-09-06 08:32:00,
2013-09-06 03:52:00,68.0,55.0,30.26,SE,126,0.0,2.0,64,0.00,,,0.00,,2013-09-06 08:52:00,
2013-09-06 04:02:00,68.0,55.0,30.26,SE,126,0.0,2.0,64,0.00,,,0.00,,2013-09-06 09:02:00,
2013-09-06 04:22:00,68.0,56.0,30.26,SE,126,0.0,1.0,65,0.00,,,0.00,,2013-09-06 09:22:00,
2013-09-06 04:33:00,68.0,56.0,30.26,SE,126,0.0,1.0,65,0.00,,,0.00,,2013-09-06 09:33:00,
2013-09-06 04:54:00,67.0,56.0,30.26,SE,126,0.0,0.0,67,0.00,,,0.00,,2013-09-06 09:54:00,
2013-09-06 05:03:00,67.0,56.0,30.26,SE,126,0.0,0.0,67,0.00,,,0.00,,2013-09-06 10:03:00,
2013-09-06 05:23:00,66.0,56.0,30.26,SE,126,0.0,1.0,70,0.00,,,0.00,,2013-09-06 10:23:00,
2013-09-06 05:32:00,66.0,56.0,30.26,SE,126,0.0,1.0,70,0.00,,,0.00,,2013-09-06 10:32:00,
2013-09-06 05:53:00,64.0,55.0,30.26,SE,127,0.0,2.0,73,0.00,,,0.00,,2013-09-06 10:53:00,
2013-09-06 06:02:00,64.0,55.0,30.26,SE,127,0.0,2.0,73,0.00,,,0.00,,2013-09-06 11:02:00,
2013-09-06 06:12:00,64.0,55.0,30.26,SE,127,0.0,2.0,73,0.00,,,0.00,,2013-09-06 11:12:00,
2013-09-06 06:22:00,64.0,55.0,30.26,SE,127,0.0,1.0,73,0.00,,,0.00,,2013-09-06 11:22:00,
2013-09-06 06:33:00,64.0,55.0,30.26,SE,127,0.0,1.0,73,0.00,,,0.00,,2013-09-06 11:33:00,
2013-09-06 06:52:00,63.0,55.0,30.27,NW,322,0.0,1.0,74,0.00,,,0.00,,2013-09-06 11:52:00,
2013-09-06 07:02:00,63.0,55.0,30.27,NW,322,0.0,1.0,74,0.00,,,0.00,,2013-09-06 12:02:00,
2013-09-06 07:21:00,63.0,55.0,30.27,NW,322,0.0,1.0,75,0.00,,,0.00,,2013-09-06 12:21:00,
2013-09-06 07:32:00,63.0,55.0,30.27,NW,322,0.0,1.0,75,0.00,,,0.00,,2013-09-06 12:32:00,
2013-09-06 07:52:00,62.0,54.0,30.28,NW,322,0.0,3.0,76,0.00,,,0.00,,2013-09-06 12:52:00,
2013-09-06 08:11:00,62.0,54.0,30.28,NW,322,0.0,3.0,76,0.00,,,0.00,,2013-09-06 13:11:00,
2013-09-06 08:22:00,62.0,54.0,30.27,NW,322,0.0,0.0,76,0.00,,,0.00,,2013-09-06 13:22:00,
2013-09-06 08:32:00,62.0,54.0,30.27,NW,322,0.0,0.0,76,0.00,,,0.00,,2013-09-06 13:32:00,
2013-09-06 08:52:00,63.0,55.0,30.29,East,88,0.0,2.0,75,0.00,,,0.00,,2013-09-06 13:52:00,
2013-09-06 09:02:00,63.0,55.0,30.29,East,88,0.0,2.0,75,0.00,,,0.00,,2013-09-06 14:02:00,
2013-09-06 09:11:00,63.0,55.0,30.29,East,88,0.0,2.0,75,0.00,,,0.00,,2013-09-06 14:11:00,
2013-09-06 10:22:00,76.0,59.0,30.30,ESE,102,0.0,7.0,55,0.00,,,0.00,,2013-09-06 15:22:00,
2013-09-06 10:34:00,76.0,59.0,30.30,ESE,102,0.0,7.0,55,0.00,,,0.00,,2013-09-06 15:34:00,
2013-09-06 10:53:00,78.0,58.0,30.31,SE,144,4.0,10.0,51,0.00,,,0.00,,2013-09-06 15:53:00,
2013-09-06 11:04:00,78.0,58.0,30.31,SE,144,4.0,10.0,51,0.00,,,0.00,,2013-09-06 16:04:00,
2013-09-06 11:24:00,79.0,58.0,30.30,East,80,6.0,10.0,48,0.00,,,0.00,,2013-09-06 16:24:00,
2013-09-06 11:33:00,79.0,58.0,30.30,East,80,6.0,10.0,48,0.00,,,0.00,,2013-09-06 16:33:00,
2013-09-06 11:53:00,81.0,58.0,30.30,SSE,149,8.0,14.0,46,0.00,,,0.00,,2013-09-06 16:53:00,
2013-09-06 12:03:00,81.0,58.0,30.30,SSE,149,8.0,14.0,46,0.00,,,0.00,,2013-09-06 17:03:00,
2013-09-06 12:24:00,82.0,58.0,30.29,ESE,109,3.0,11.0,44,0.00,,,0.00,,2013-09-06 17:24:00,
2013-09-06 12:34:00,82.0,58.0,30.29,ESE,109,3.0,11.0,44,0.00,,,0.00,,2013-09-06 17:34:00,
2013-09-06 12:53:00,83.0,58.0,30.29,SE,146,6.0,10.0,42,0.00,,,0.00,,2013-09-06 17:53:00,
2013-09-06 13:02:00,83.0,58.0,30.29,SE,146,6.0,10.0,42,0.00,,,0.00,,2013-09-06 18:02:00,
2013-09-06 13:12:00,83.0,58.0,30.29,SE,146,6.0,10.0,42,0.00,,,0.00,,2013-09-06 18:12:00,
2013-09-06 13:22:00,84.0,57.0,30.28,East,92,4.0,11.0,40,0.00,,,0.00,,2013-09-06 18:22:00,
2013-09-06 13:32:00,84.0,57.0,30.28,East,92,4.0,11.0,40,0.00,,,0.00,,2013-09-06 18:32:00,
2013-09-06 13:52:00,84.0,57.0,30.26,ESE,107,5.0,13.0,40,0.00,,,0.00,,2013-09-06 18:52:00,
2013-09-06 14:02:00,84.0,57.0,30.26,ESE,107,5.0,13.0,40,0.00,,,0.00,,2013-09-06 19:02:00,
2013-09-06 14:12:00,84.0,57.0,30.26,ESE,107,5.0,13.0,40,0.00,,,0.00,,2013-09-06 19:12:00,
2013-09-06 14:22:00,84.0,57.0,30.25,SSE,147,1.0,11.0,40,0.00,,,0.00,,2013-09-06 19:22:00,
2013-09-06 14:30:00,86.0,56.0,30.24,SE,130,4.0,11.0,36,0.00,,,0.00,,2013-09-06 19:30:00,
2013-09-06 14:32:00,84.0,57.0,30.25,SSE,147,1.0,11.0,40,0.00,,,0.00,,2013-09-06 19:32:00,
2013-09-06 14:52:00,86.0,56.0,30.24,SE,130,4.0,11.0,36,0.00,,,0.00,,2013-09-06 19:52:00,
2013-09-06 15:02:00,86.0,56.0,30.24,SE,130,4.0,11.0,36,0.00,,,0.00,,2013-09-06 20:02:00,
2013-09-06 15:12:00,86.0,56.0,30.24,SE,130,4.0,11.0,36,0.00,,,0.00,,2013-09-06 20:12:00,
2013-09-06 15:23:00,86.0,56.0,30.24,SE,130,4.0,11.0,36,0.00,,,0.00,,2013-09-06 20:23:00,
2013-09-06 17:23:00,83.0,55.0,30.19,SSE,147,6.0,11.0,38,0.00,,,0.00,,2013-09-06 22:23:00,
2013-09-06 17:33:00,83.0,55.0,30.19,SSE,147,6.0,11.0,38,0.00,,,0.00,,2013-09-06 22:33:00,
2013-09-06 17:54:00,84.0,56.0,30.19,ESE,103,6.0,13.0,38,0.00,,,0.00,,2013-09-06 22:54:00,
2013-09-06 18:03:00,84.0,56.0,30.19,ESE,103,6.0,13.0,38,0.00,,,0.00,,2013-09-06 23:03:00,
2013-09-06 18:23:00,86.0,55.0,30.17,SE,145,8.0,15.0,35,0.00,,,0.00,,2013-09-06 23:23:00,
2013-09-06 18:33:00,86.0,55.0,30.17,SE,145,8.0,15.0,35,0.00,,,0.00,,2013-09-06 23:33:00,
2013-09-06 18:52:00,85.0,55.0,30.17,SE,126,5.0,12.0,36,0.00,,,0.00,,2013-09-06 23:52:00,
2013-09-06 19:01:00,85.0,55.0,30.17,SE,126,5.0,12.0,36,0.00,,,0.00,,2013-09-07 00:01:00,
2013-09-06 19:12:00,85.0,55.0,30.17,SE,126,5.0,12.0,36,0.00,,,0.00,,2013-09-07 00:12:00,
2013-09-06 19:22:00,83.0,53.0,30.17,ESE,109,7.0,13.0,36,0.00,,,0.00,,2013-09-07 00:22:00,
2013-09-06 19:32:00,83.0,53.0,30.17,ESE,109,7.0,13.0,36,0.00,,,0.00,,2013-09-07 00:32:00,
2013-09-06 19:42:00,83.0,53.0,30.17,ESE,109,7.0,13.0,36,0.00,,,0.00,,2013-09-07 00:42:00,
2013-09-06 19:52:00,81.0,54.0,30.18,SE,138,4.0,13.0,40,0.00,,,0.00,,2013-09-07 00:52:00,
2013-09-06 20:02:00,81.0,54.0,30.18,SE,138,4.0,13.0,40,0.00,,,0.00,,2013-09-07 01:02:00,
2013-09-06 20:12:00,81.0,54.0,30.18,SE,138,4.0,13.0,40,0.00,,,0.00,,2013-09-07 01:12:00,
2013-09-06 20:22:00,79.0,54.0,30.18,ESE,121,8.0,11.0,42,0.00,,,0.00,,2013-09-07 01:22:00,
2013-09-06 20:32:00,79.0,54.0,30.18,ESE,121,8.0,11.0,42,0.00,,,0.00,,2013-09-07 01:32:00,
2013-09-06 20:53:00,77.0,53.0,30.19,East,100,4.0,13.0,44,0.00,,,0.00,,2013-09-07 01:53:00,
2013-09-06 21:02:00,77.0,53.0,30.19,East,100,4.0,13.0,44,0.00,,,0.00,,2013-09-07 02:02:00,
2013-09-06 21:12:00,77.0,53.0,30.19,East,100,4.0,13.0,44,0.00,,,0.00,,2013-09-07 02:12:00,
2013-09-06 21:23:00,76.0,54.0,30.17,East,101,3.0,10.0,46,0.00,,,0.00,,2013-09-07 02:23:00,
2013-09-06 21:32:00,76.0,54.0,30.17,East,101,3.0,10.0,46,0.00,,,0.00,,2013-09-07 02:32:00,
2013-09-06 21:43:00,76.0,54.0,30.17,East,101,3.0,10.0,46,0.00,,,0.00,,2013-09-07 02:43:00,
2013-09-06 21:52:00,75.0,55.0,30.18,East,98,4.0,10.0,50,0.00,,,0.00,,2013-09-07 02:52:00,
2013-09-06 22:02:00,75.0,55.0,30.18,East,98,4.0,10.0,50,0.00,,,0.00,,2013-09-07 03:02:00,
2013-09-06 22:12:00,75.0,55.0,30.18,East,98,4.0,10.0,50,0.00,,,0.00,,2013-09-07 03:12:00,
2013-09-06 22:23:00,74.0,55.0,30.20,ESE,104,4.0,10.0,52,0.00,,,0.00,,2013-09-07 03:23:00,
2013-09-06 22:34:00,74.0,55.0,30.20,ESE,104,4.0,10.0,52,0.00,,,0.00,,2013-09-07 03:34:00,
2013-09-06 22:55:00,73.0,55.0,30.20,East,80,1.0,9.0,53,0.00,,,0.00,,2013-09-07 03:55:00,
2013-09-06 23:03:00,73.0,55.0,30.20,East,80,1.0,9.0,53,0.00,,,0.00,,2013-09-07 04:03:00,
2013-09-06 23:23:00,72.0,55.0,30.20,East,91,3.0,8.0,56,0.00,,,0.00,,2013-09-07 04:23:00,
2013-09-06 23:34:00,72.0,55.0,30.20,East,91,3.0,8.0,56,0.00,,,0.00,,2013-09-07 04:34:00,
2013-09-06 23:54:00,71.0,55.0,30.21,SE,126,3.0,6.0,57,0.00,,,0.00,,2013-09-07 04:54:00,